sat.trackr.live / text

‹ back to catalog

STARLINK-34459

NORAD 64449 · 2025-130M

PAYLOAD ACTIVE UNKNOWN

§ Identity

Operator
Country
US
Launch date
2025-06-18
Launch site
AFETR
Launch vehicle
Mass (kg)
RCS (m²)

Purposes: comms

External: N2YO · Heavens-Above · Gunter

§ Orbital elements

Epoch: 2026-09-20T23:11:59.260704Z

Period
93.85 min
Inclination
53.1574°
Eccentricity
0.0001342
Mean motion
15.34392590 rev/d
Perigee alt
461.8 km
Apogee alt
463.6 km
Semi-major
6,840.9 km
B*
2.1693e-4
RAAN
257.7524°
Arg perigee
90.2136°
Mean anomaly
269.9020°
Rev number
7,065

§ Raw data

STARLINK-344591 64449U 25130M   26263.96665811  .00006958  00000+0  21693-3 0  99902 64449  53.1574 257.7524 0001342  90.2136 269.9020 15.34392590 70654

JSON: /api/v1/satellites/64449 · /tle

For live sub-satellite position, see the globe view (requires WebGL).

§ Visibility from observer

Set your observer location to see the next 7 days of passes ≥ 10°. The values pass through the URL so the page stays shareable.

No JS? Fill the form by hand. The geolocation button needs JavaScript.